Year,Month,Day,Hour,Minute,Value (Times are PST for temperature in C)
2016,10,12,00,00,5.80
2016,10,12,00,01,5.70
2016,10,12,00,02,5.70
2016,10,12,00,03,5.60
2016,10,12,00,04,5.60
2016,10,12,00,05,5.60
2016,10,12,00,06,5.60
2016,10,12,00,07,5.60
2016,10,12,00,08,5.60
2016,10,12,00,09,5.60
2016,10,12,00,10,5.60
2016,10,12,00,11,5.60
2016,10,12,00,12,5.60
2016,10,12,00,13,5.60
2016,10,12,00,14,5.60
2016,10,12,00,15,5.60
2016,10,12,00,16,5.60
2016,10,12,00,17,5.60
2016,10,12,00,18,5.60
2016,10,12,00,19,5.50
2016,10,12,00,20,5.50
2016,10,12,00,21,5.50
2016,10,12,00,22,5.50
2016,10,12,00,23,5.40
2016,10,12,00,24,5.40
2016,10,12,00,25,5.30
2016,10,12,00,26,5.30
2016,10,12,00,27,5.30
2016,10,12,00,28,5.20
2016,10,12,00,29,5.10
2016,10,12,00,30,5.10
2016,10,12,00,31,5.00
2016,10,12,00,32,4.90
2016,10,12,00,33,4.90
2016,10,12,00,34,4.90
2016,10,12,00,35,4.90
2016,10,12,00,36,4.90
2016,10,12,00,37,4.80
2016,10,12,00,38,4.80
2016,10,12,00,39,4.80
2016,10,12,00,40,4.70
2016,10,12,00,41,4.70
2016,10,12,00,42,4.70
2016,10,12,00,43,4.70
2016,10,12,00,44,4.60
2016,10,12,00,45,4.60
2016,10,12,00,46,4.60
2016,10,12,00,47,4.50
2016,10,12,00,48,4.50
2016,10,12,00,49,4.40
2016,10,12,00,50,4.40
2016,10,12,00,51,4.40
2016,10,12,00,52,4.30
2016,10,12,00,53,4.30
2016,10,12,00,54,4.30
2016,10,12,00,55,4.30
2016,10,12,00,56,4.20
2016,10,12,00,57,4.20
2016,10,12,00,58,4.20
2016,10,12,00,59,4.10
2016,10,12,01,00,4.00
2016,10,12,01,01,3.90
2016,10,12,01,02,3.80
2016,10,12,01,03,3.80
2016,10,12,01,04,3.70
2016,10,12,01,05,3.60
2016,10,12,01,06,3.60
2016,10,12,01,07,3.50
2016,10,12,01,08,3.50
2016,10,12,01,09,3.40
2016,10,12,01,10,3.40
2016,10,12,01,11,3.30
2016,10,12,01,12,3.30
2016,10,12,01,13,3.20
2016,10,12,01,14,3.20
2016,10,12,01,15,3.20
2016,10,12,01,16,3.20
2016,10,12,01,17,3.10
2016,10,12,01,18,3.10
2016,10,12,01,19,3.10
2016,10,12,01,20,3.10
2016,10,12,01,21,3.10
2016,10,12,01,22,3.10
2016,10,12,01,23,3.10
2016,10,12,01,24,3.10
2016,10,12,01,25,3.00
2016,10,12,01,26,3.00
2016,10,12,01,27,3.00
2016,10,12,01,28,3.10
2016,10,12,01,29,3.10
2016,10,12,01,30,3.10
2016,10,12,01,31,3.10
2016,10,12,01,32,3.10
2016,10,12,01,33,3.10
2016,10,12,01,34,3.00
2016,10,12,01,35,3.00
2016,10,12,01,36,2.90
2016,10,12,01,37,2.90
2016,10,12,01,38,2.90
2016,10,12,01,39,2.80
2016,10,12,01,40,2.80
2016,10,12,01,41,2.80
2016,10,12,01,42,2.70
2016,10,12,01,43,2.70
2016,10,12,01,44,2.70
2016,10,12,01,45,2.70
2016,10,12,01,46,2.70
2016,10,12,01,47,2.60
2016,10,12,01,48,2.60
2016,10,12,01,49,2.60
2016,10,12,01,50,2.60
2016,10,12,01,51,2.60
2016,10,12,01,52,2.60
2016,10,12,01,53,2.60
2016,10,12,01,54,2.60
2016,10,12,01,55,2.60
2016,10,12,01,56,2.60
2016,10,12,01,57,2.60
2016,10,12,01,58,2.70
2016,10,12,01,59,2.70
2016,10,12,02,00,2.70
2016,10,12,02,01,2.70
2016,10,12,02,02,2.70
2016,10,12,02,03,2.70
2016,10,12,02,04,2.70
2016,10,12,02,05,2.80
2016,10,12,02,06,2.80
2016,10,12,02,07,2.90
2016,10,12,02,08,3.00
2016,10,12,02,09,3.10
2016,10,12,02,10,3.20
2016,10,12,02,11,3.30
2016,10,12,02,12,3.40
2016,10,12,02,13,3.50
2016,10,12,02,14,3.50
2016,10,12,02,15,3.50
2016,10,12,02,16,3.60
2016,10,12,02,17,3.70
2016,10,12,02,18,3.70
2016,10,12,02,19,3.80
2016,10,12,02,20,3.80
2016,10,12,02,21,3.80
2016,10,12,02,22,3.90
2016,10,12,02,23,3.90
2016,10,12,02,24,4.00
2016,10,12,02,25,4.00
2016,10,12,02,26,4.10
2016,10,12,02,27,4.10
2016,10,12,02,28,4.10
2016,10,12,02,29,4.20
2016,10,12,02,30,4.30
2016,10,12,02,31,4.30
2016,10,12,02,32,4.30
2016,10,12,02,33,4.40
2016,10,12,02,34,4.40
2016,10,12,02,35,4.40
2016,10,12,02,36,4.40
2016,10,12,02,37,4.40
2016,10,12,02,38,4.40
2016,10,12,02,39,4.30
2016,10,12,02,40,4.30
2016,10,12,02,41,4.30
2016,10,12,02,42,4.30
2016,10,12,02,43,4.30
2016,10,12,02,44,4.20
2016,10,12,02,45,4.20
2016,10,12,02,46,4.10
2016,10,12,02,47,4.10
2016,10,12,02,48,4.10
2016,10,12,02,49,4.00
2016,10,12,02,50,4.00
2016,10,12,02,51,3.90
2016,10,12,02,52,3.90
2016,10,12,02,53,3.80
2016,10,12,02,54,3.80
2016,10,12,02,55,3.80
2016,10,12,02,56,3.80
2016,10,12,02,57,3.80
2016,10,12,02,58,3.80
2016,10,12,02,59,3.80
2016,10,12,03,00,3.80
2016,10,12,03,01,3.80
2016,10,12,03,02,3.80
2016,10,12,03,03,3.80
2016,10,12,03,04,3.80
2016,10,12,03,05,3.80
2016,10,12,03,06,3.80
2016,10,12,03,07,3.80
2016,10,12,03,08,3.70
2016,10,12,03,09,3.80
2016,10,12,03,10,3.80
2016,10,12,03,11,3.80
2016,10,12,03,12,3.90
2016,10,12,03,13,3.90
2016,10,12,03,14,3.90
2016,10,12,03,15,3.90
2016,10,12,03,16,3.90
2016,10,12,03,17,3.90
2016,10,12,03,18,3.90
2016,10,12,03,19,3.80
2016,10,12,03,20,3.80
2016,10,12,03,21,3.70
2016,10,12,03,22,3.70
2016,10,12,03,23,3.60
2016,10,12,03,24,3.60
2016,10,12,03,25,3.60
2016,10,12,03,26,3.50
2016,10,12,03,27,3.50
2016,10,12,03,28,3.40
2016,10,12,03,29,3.40
2016,10,12,03,30,3.40
2016,10,12,03,31,3.40
2016,10,12,03,32,3.40
2016,10,12,03,33,3.40
2016,10,12,03,34,3.30
2016,10,12,03,35,3.30
2016,10,12,03,36,3.30
2016,10,12,03,37,3.20
2016,10,12,03,38,3.20
2016,10,12,03,39,3.20
2016,10,12,03,40,3.20
2016,10,12,03,41,3.10
2016,10,12,03,42,3.10
2016,10,12,03,43,3.10
2016,10,12,03,44,3.10
2016,10,12,03,45,3.00
2016,10,12,03,46,3.00
2016,10,12,03,47,3.00
2016,10,12,03,48,2.90
2016,10,12,03,49,2.90
2016,10,12,03,50,2.90
2016,10,12,03,51,2.80
2016,10,12,03,52,2.80
2016,10,12,03,53,2.80
2016,10,12,03,54,2.70
2016,10,12,03,55,2.70
2016,10,12,03,56,2.70
2016,10,12,03,57,2.70
2016,10,12,03,58,2.70
2016,10,12,03,59,2.70
2016,10,12,04,00,2.70
2016,10,12,04,01,2.70
2016,10,12,04,02,2.70
2016,10,12,04,03,2.80
2016,10,12,04,04,2.80
2016,10,12,04,05,2.80
2016,10,12,04,06,2.80
2016,10,12,04,07,2.80
2016,10,12,04,08,2.90
2016,10,12,04,09,2.90
2016,10,12,04,10,3.00
2016,10,12,04,11,3.00
2016,10,12,04,12,3.10
2016,10,12,04,13,3.10
2016,10,12,04,14,3.10
2016,10,12,04,15,3.00
2016,10,12,04,16,3.00
2016,10,12,04,17,3.00
2016,10,12,04,18,3.00
2016,10,12,04,19,2.90
2016,10,12,04,20,2.90
2016,10,12,04,21,2.90
2016,10,12,04,22,2.90
2016,10,12,04,23,2.90
2016,10,12,04,24,2.90
2016,10,12,04,25,2.90
2016,10,12,04,26,2.90
2016,10,12,04,27,2.90
2016,10,12,04,28,2.90
2016,10,12,04,29,2.90
2016,10,12,04,30,2.90
2016,10,12,04,31,2.90
2016,10,12,04,32,2.80
2016,10,12,04,33,2.80
2016,10,12,04,34,2.80
2016,10,12,04,35,2.80
2016,10,12,04,36,2.70
2016,10,12,04,37,2.70
2016,10,12,04,38,2.70
2016,10,12,04,39,2.60
2016,10,12,04,40,2.60
2016,10,12,04,41,2.50
2016,10,12,04,42,2.50
2016,10,12,04,43,2.40
2016,10,12,04,44,2.40
2016,10,12,04,45,2.30
2016,10,12,04,46,2.30
2016,10,12,04,47,2.30
2016,10,12,04,48,2.20
2016,10,12,04,49,2.20
2016,10,12,04,50,2.20
2016,10,12,04,51,2.10
2016,10,12,04,52,2.10
2016,10,12,04,53,2.10
2016,10,12,04,54,2.00
2016,10,12,04,55,2.10
2016,10,12,04,56,2.00
2016,10,12,04,57,2.00
2016,10,12,04,58,2.00
2016,10,12,04,59,2.00
2016,10,12,05,00,2.00
2016,10,12,05,01,2.00
2016,10,12,05,02,2.00
2016,10,12,05,03,2.00
2016,10,12,05,04,2.00
2016,10,12,05,05,2.00
2016,10,12,05,06,2.00
2016,10,12,05,07,2.00
2016,10,12,05,08,2.00
2016,10,12,05,09,2.00
2016,10,12,05,10,2.00
2016,10,12,05,11,1.90
2016,10,12,05,12,1.90
2016,10,12,05,13,1.90
2016,10,12,05,14,1.90
2016,10,12,05,15,1.90
2016,10,12,05,16,1.90
2016,10,12,05,17,1.90
2016,10,12,05,18,1.90
2016,10,12,05,19,1.80
2016,10,12,05,20,1.80
2016,10,12,05,21,1.80
2016,10,12,05,22,1.80
2016,10,12,05,23,1.80
2016,10,12,05,24,1.80
2016,10,12,05,25,1.90
2016,10,12,05,26,1.90
2016,10,12,05,27,1.90
2016,10,12,05,28,1.90
2016,10,12,05,29,1.90
2016,10,12,05,30,2.00
2016,10,12,05,31,2.00
2016,10,12,05,32,2.00
2016,10,12,05,33,2.10
2016,10,12,05,34,2.10
2016,10,12,05,35,2.10
2016,10,12,05,36,2.20
2016,10,12,05,37,2.20
2016,10,12,05,38,2.20
2016,10,12,05,39,2.20
2016,10,12,05,40,2.20
2016,10,12,05,41,2.30
2016,10,12,05,42,2.30
2016,10,12,05,43,2.40
2016,10,12,05,44,2.40
2016,10,12,05,45,2.40
2016,10,12,05,46,2.40
2016,10,12,05,47,2.40
2016,10,12,05,48,2.30
2016,10,12,05,49,2.30
2016,10,12,05,50,2.20
2016,10,12,05,51,2.20
2016,10,12,05,52,2.10
2016,10,12,05,53,2.10
2016,10,12,05,54,2.10
2016,10,12,05,55,2.10
2016,10,12,05,56,2.10
2016,10,12,05,57,2.10
2016,10,12,05,58,2.10
2016,10,12,05,59,2.10
2016,10,12,06,00,2.10
2016,10,12,06,01,2.10
2016,10,12,06,02,2.10
2016,10,12,06,03,2.10
2016,10,12,06,04,2.10
2016,10,12,06,05,2.10
2016,10,12,06,06,2.10
2016,10,12,06,07,2.20
2016,10,12,06,08,2.20
2016,10,12,06,09,2.30
2016,10,12,06,10,2.30
2016,10,12,06,11,2.30
2016,10,12,06,12,2.30
2016,10,12,06,13,2.30
2016,10,12,06,14,2.30
2016,10,12,06,15,2.30
2016,10,12,06,16,2.30
2016,10,12,06,17,2.30
2016,10,12,06,18,2.30
2016,10,12,06,19,2.30
2016,10,12,06,20,2.30
2016,10,12,06,21,2.30
2016,10,12,06,22,2.30
2016,10,12,06,23,2.30
2016,10,12,06,24,2.40
2016,10,12,06,25,2.40
2016,10,12,06,26,2.40
2016,10,12,06,27,2.50
2016,10,12,06,28,2.50
2016,10,12,06,29,2.50
2016,10,12,06,30,2.50
2016,10,12,06,31,2.50
2016,10,12,06,32,2.50
2016,10,12,06,33,2.50
2016,10,12,06,34,2.50
2016,10,12,06,35,2.50
2016,10,12,06,36,2.50
2016,10,12,06,37,2.50
2016,10,12,06,38,2.50
2016,10,12,06,39,2.50
2016,10,12,06,40,2.50
2016,10,12,06,41,2.50
2016,10,12,06,42,2.50
2016,10,12,06,43,2.40
2016,10,12,06,44,2.40
2016,10,12,06,45,2.40
2016,10,12,06,46,2.30
2016,10,12,06,47,2.30
2016,10,12,06,48,2.30
2016,10,12,06,49,2.30
2016,10,12,06,50,2.30
2016,10,12,06,51,2.30
2016,10,12,06,52,2.30
2016,10,12,06,53,2.40
2016,10,12,06,54,2.40
2016,10,12,06,55,2.40
2016,10,12,06,56,2.40
2016,10,12,06,57,2.30
2016,10,12,06,58,2.30
2016,10,12,06,59,2.30
2016,10,12,07,00,2.40
2016,10,12,07,01,2.40
2016,10,12,07,02,2.40
2016,10,12,07,03,2.50
2016,10,12,07,04,2.50
2016,10,12,07,05,2.60
2016,10,12,07,06,2.60
2016,10,12,07,07,2.60
2016,10,12,07,08,2.60
2016,10,12,07,09,2.60
2016,10,12,07,10,2.60
2016,10,12,07,11,2.60
2016,10,12,07,12,2.50
2016,10,12,07,13,2.50
2016,10,12,07,14,2.50
2016,10,12,07,15,2.40
2016,10,12,07,16,2.40
2016,10,12,07,17,2.40
2016,10,12,07,18,2.30
2016,10,12,07,19,2.30
2016,10,12,07,20,2.30
2016,10,12,07,21,2.30
2016,10,12,07,22,2.30
2016,10,12,07,23,2.40
2016,10,12,07,24,2.40
2016,10,12,07,25,2.40
2016,10,12,07,26,2.40
2016,10,12,07,27,2.40
2016,10,12,07,28,2.40
2016,10,12,07,29,2.30
2016,10,12,07,30,2.30
2016,10,12,07,31,2.20
2016,10,12,07,32,2.20
2016,10,12,07,33,2.20
2016,10,12,07,34,2.20
2016,10,12,07,35,2.20
2016,10,12,07,36,2.20
2016,10,12,07,37,2.20
2016,10,12,07,38,2.20
2016,10,12,07,39,2.30
2016,10,12,07,40,2.30
2016,10,12,07,41,2.30
2016,10,12,07,42,2.30
2016,10,12,07,43,2.30
2016,10,12,07,44,2.30
2016,10,12,07,45,2.30
2016,10,12,07,46,2.30
2016,10,12,07,47,2.30
2016,10,12,07,48,2.30
2016,10,12,07,49,2.30
2016,10,12,07,50,2.20
2016,10,12,07,51,2.20
2016,10,12,07,52,2.20
2016,10,12,07,53,2.20
2016,10,12,07,54,2.20
2016,10,12,07,55,2.20
2016,10,12,07,56,2.20
2016,10,12,07,57,2.10
2016,10,12,07,58,2.10
2016,10,12,07,59,2.10
2016,10,12,08,00,2.10
2016,10,12,08,01,2.00
2016,10,12,08,02,2.00
2016,10,12,08,03,1.90
2016,10,12,08,04,1.90
2016,10,12,08,05,1.90
2016,10,12,08,06,1.80
2016,10,12,08,07,1.80
2016,10,12,08,08,1.80
2016,10,12,08,09,1.80
2016,10,12,08,10,1.80
2016,10,12,08,11,1.80
2016,10,12,08,12,1.80
2016,10,12,08,13,1.80
2016,10,12,08,14,1.80
2016,10,12,08,15,1.80
2016,10,12,08,16,1.90
2016,10,12,08,17,1.90
2016,10,12,08,18,2.00
2016,10,12,08,19,2.10
2016,10,12,08,20,2.10
2016,10,12,08,21,2.20
2016,10,12,08,22,2.20
2016,10,12,08,23,2.20
2016,10,12,08,24,2.30
2016,10,12,08,25,2.30
2016,10,12,08,26,2.30
2016,10,12,08,27,2.30
2016,10,12,08,28,2.30
2016,10,12,08,29,2.30
2016,10,12,08,30,2.40
2016,10,12,08,31,2.40
2016,10,12,08,32,2.40
2016,10,12,08,33,2.50
2016,10,12,08,34,2.50
2016,10,12,08,35,2.50
2016,10,12,08,36,2.50
2016,10,12,08,37,2.60
2016,10,12,08,38,2.60
2016,10,12,08,39,2.70
2016,10,12,08,40,2.70
2016,10,12,08,41,2.70
2016,10,12,08,42,2.80
2016,10,12,08,43,2.80
2016,10,12,08,44,2.80
2016,10,12,08,45,2.90
2016,10,12,08,46,2.90
2016,10,12,08,47,2.90
2016,10,12,08,48,3.00
2016,10,12,08,49,3.00
2016,10,12,08,50,3.00
2016,10,12,08,51,3.10
2016,10,12,08,52,3.10
2016,10,12,08,53,3.10
2016,10,12,08,54,3.20
2016,10,12,08,55,3.20
2016,10,12,08,56,3.20
2016,10,12,08,57,3.30
2016,10,12,08,58,3.30
2016,10,12,08,59,3.30
2016,10,12,09,00,3.40
2016,10,12,09,01,3.40
2016,10,12,09,02,3.50
2016,10,12,09,03,3.60
2016,10,12,09,04,3.60
2016,10,12,09,05,3.60
2016,10,12,09,06,3.70
2016,10,12,09,07,3.70
2016,10,12,09,08,3.80
2016,10,12,09,09,3.80
2016,10,12,09,10,3.90
2016,10,12,09,11,3.90
2016,10,12,09,12,4.00
2016,10,12,09,13,4.10
2016,10,12,09,14,4.10
2016,10,12,09,15,4.20
2016,10,12,09,16,4.20
2016,10,12,09,17,4.30
2016,10,12,09,18,4.30
2016,10,12,09,19,4.40
2016,10,12,09,20,4.50
2016,10,12,09,21,4.60
2016,10,12,09,22,4.70
2016,10,12,09,23,4.80
2016,10,12,09,24,4.90
2016,10,12,09,25,5.00
2016,10,12,09,26,5.10
2016,10,12,09,27,5.20
2016,10,12,09,28,5.20
2016,10,12,09,29,5.30
2016,10,12,09,30,5.40
2016,10,12,09,31,5.50
2016,10,12,09,32,5.70
2016,10,12,09,33,5.80
2016,10,12,09,34,5.90
2016,10,12,09,35,6.00
2016,10,12,09,36,6.00
2016,10,12,09,37,6.10
2016,10,12,09,38,6.20
2016,10,12,09,39,6.30
2016,10,12,09,40,6.30
2016,10,12,09,41,6.40
2016,10,12,09,42,6.50
2016,10,12,09,43,6.60
2016,10,12,09,44,6.70
2016,10,12,09,45,6.80
2016,10,12,09,46,6.90
2016,10,12,09,47,7.00
2016,10,12,09,48,7.00
2016,10,12,09,49,7.10
2016,10,12,09,50,7.20
2016,10,12,09,51,7.20
2016,10,12,09,52,7.30
2016,10,12,09,53,7.30
2016,10,12,09,54,7.30
2016,10,12,09,55,7.30
2016,10,12,09,56,7.40
2016,10,12,09,57,7.40
2016,10,12,09,58,7.50
2016,10,12,09,59,7.60
2016,10,12,10,00,7.60
2016,10,12,10,01,7.70
2016,10,12,10,02,7.70
2016,10,12,10,03,7.80
2016,10,12,10,04,7.80
2016,10,12,10,05,7.90
2016,10,12,10,06,7.90
2016,10,12,10,07,8.00
2016,10,12,10,08,8.10
2016,10,12,10,09,8.10
2016,10,12,10,10,8.20
2016,10,12,10,11,8.20
2016,10,12,10,12,8.20
2016,10,12,10,13,8.30
2016,10,12,10,14,8.40
2016,10,12,10,15,8.50
2016,10,12,10,16,8.50
2016,10,12,10,17,8.60
2016,10,12,10,18,8.70
2016,10,12,10,19,8.70
2016,10,12,10,20,8.70
2016,10,12,10,21,8.80
2016,10,12,10,22,8.80
2016,10,12,10,23,8.90
2016,10,12,10,24,8.90
2016,10,12,10,25,8.90
2016,10,12,10,26,8.90
2016,10,12,10,27,9.00
2016,10,12,10,28,9.00
2016,10,12,10,29,9.00
2016,10,12,10,30,9.00
2016,10,12,10,31,9.00
2016,10,12,10,32,9.00
2016,10,12,10,33,9.00
2016,10,12,10,34,9.00
2016,10,12,10,35,9.00
2016,10,12,10,36,9.00
2016,10,12,10,37,8.90
2016,10,12,10,38,8.90
2016,10,12,10,39,9.00
2016,10,12,10,40,9.00
2016,10,12,10,41,9.00
2016,10,12,10,42,9.00
2016,10,12,10,43,9.00
2016,10,12,10,44,9.00
2016,10,12,10,45,9.00
2016,10,12,10,46,8.90
2016,10,12,10,47,8.90
2016,10,12,10,48,9.00
2016,10,12,10,49,9.00
2016,10,12,10,50,9.10
2016,10,12,10,51,9.10
2016,10,12,10,52,9.10
2016,10,12,10,53,9.10
2016,10,12,10,54,9.10
2016,10,12,10,55,9.10
2016,10,12,10,56,9.10
2016,10,12,10,57,9.10
2016,10,12,10,58,9.10
2016,10,12,10,59,9.20
2016,10,12,11,00,9.20
2016,10,12,11,01,9.20
2016,10,12,11,02,9.30
2016,10,12,11,03,9.30
2016,10,12,11,04,9.30
2016,10,12,11,05,9.30
2016,10,12,11,06,9.40
2016,10,12,11,07,9.40
2016,10,12,11,08,9.40
2016,10,12,11,09,9.40
2016,10,12,11,10,9.40
2016,10,12,11,11,9.40
2016,10,12,11,12,9.40
2016,10,12,11,13,9.40
2016,10,12,11,14,9.40
2016,10,12,11,15,9.40
2016,10,12,11,16,9.40
2016,10,12,11,17,9.50
2016,10,12,11,18,9.50
2016,10,12,11,19,9.50
2016,10,12,11,20,9.50
2016,10,12,11,21,9.40
2016,10,12,11,22,9.40
2016,10,12,11,23,9.40
2016,10,12,11,24,9.40
2016,10,12,11,25,9.40
2016,10,12,11,26,9.40
2016,10,12,11,27,9.40
2016,10,12,11,28,9.30
2016,10,12,11,29,9.30
2016,10,12,11,30,9.30
2016,10,12,11,31,9.30
2016,10,12,11,32,9.30
2016,10,12,11,33,9.40
2016,10,12,11,34,9.40
2016,10,12,11,35,9.50
2016,10,12,11,36,9.50
2016,10,12,11,37,9.50
2016,10,12,11,38,9.50
2016,10,12,11,39,9.60
2016,10,12,11,40,9.60
2016,10,12,11,41,9.60
2016,10,12,11,42,9.60
2016,10,12,11,43,9.70
2016,10,12,11,44,9.80
2016,10,12,11,45,9.80
2016,10,12,11,46,9.80
2016,10,12,11,47,9.90
2016,10,12,11,48,9.90
2016,10,12,11,49,10.00
2016,10,12,11,50,10.10
2016,10,12,11,51,10.20
2016,10,12,11,52,10.20
2016,10,12,11,53,10.20
2016,10,12,11,54,10.20
2016,10,12,11,55,10.20
2016,10,12,11,56,10.20
2016,10,12,11,57,10.30
2016,10,12,11,58,10.30
2016,10,12,11,59,10.30
2016,10,12,12,00,10.30
2016,10,12,12,01,10.40
2016,10,12,12,02,10.50
2016,10,12,12,03,10.50
2016,10,12,12,04,10.60
2016,10,12,12,05,10.60
2016,10,12,12,06,10.70
2016,10,12,12,07,10.70
2016,10,12,12,08,10.80
2016,10,12,12,09,10.80
2016,10,12,12,10,10.90
2016,10,12,12,11,11.00
2016,10,12,12,12,11.00
2016,10,12,12,13,11.10
2016,10,12,12,14,11.10
2016,10,12,12,15,11.10
2016,10,12,12,16,11.20
2016,10,12,12,17,11.20
2016,10,12,12,18,11.30
2016,10,12,12,19,11.30
2016,10,12,12,20,11.30
2016,10,12,12,21,11.40
2016,10,12,12,22,11.40
2016,10,12,12,23,11.40
2016,10,12,12,24,11.50
2016,10,12,12,25,11.50
2016,10,12,12,26,11.60
2016,10,12,12,27,11.60
2016,10,12,12,28,11.60
2016,10,12,12,29,11.70
2016,10,12,12,30,11.70
2016,10,12,12,31,11.70
2016,10,12,12,32,11.70
2016,10,12,12,33,11.70
2016,10,12,12,34,11.80
2016,10,12,12,35,11.80
2016,10,12,12,36,11.80
2016,10,12,12,37,11.80
2016,10,12,12,38,11.80
2016,10,12,12,39,11.90
2016,10,12,12,40,12.00
2016,10,12,12,41,12.10
2016,10,12,12,42,12.10
2016,10,12,12,43,12.20
2016,10,12,12,44,12.20
2016,10,12,12,45,12.30
2016,10,12,12,46,12.40
2016,10,12,12,47,12.40
2016,10,12,12,48,12.50
2016,10,12,12,49,12.60
2016,10,12,12,50,12.70
2016,10,12,12,51,12.80
2016,10,12,12,52,12.80
2016,10,12,12,53,12.90
2016,10,12,12,54,12.90
2016,10,12,12,55,12.90
2016,10,12,12,56,13.00
2016,10,12,12,57,13.00
2016,10,12,12,58,13.10
2016,10,12,12,59,13.20
2016,10,12,13,00,13.20
2016,10,12,13,01,13.30
2016,10,12,13,02,13.30
2016,10,12,13,03,13.40
2016,10,12,13,04,13.40
2016,10,12,13,05,13.50
2016,10,12,13,06,13.60
2016,10,12,13,07,13.60
2016,10,12,13,08,13.70
2016,10,12,13,09,13.70
2016,10,12,13,10,13.70
2016,10,12,13,11,13.70
2016,10,12,13,12,13.80
2016,10,12,13,13,13.80
2016,10,12,13,14,13.90
2016,10,12,13,15,13.90
2016,10,12,13,16,14.00
2016,10,12,13,17,14.00
2016,10,12,13,18,14.10
2016,10,12,13,19,14.10
2016,10,12,13,20,14.20
2016,10,12,13,21,14.30
2016,10,12,13,22,14.40
2016,10,12,13,23,14.50
2016,10,12,13,24,14.60
2016,10,12,13,25,14.50
2016,10,12,13,26,14.50
2016,10,12,13,27,14.50
2016,10,12,13,28,14.50
2016,10,12,13,29,14.50
2016,10,12,13,30,14.50
2016,10,12,13,31,14.60
2016,10,12,13,32,14.60
2016,10,12,13,33,14.70
2016,10,12,13,34,14.80
2016,10,12,13,35,14.80
2016,10,12,13,36,14.80
2016,10,12,13,37,14.80
2016,10,12,13,38,14.80
2016,10,12,13,39,14.90
2016,10,12,13,40,14.90
2016,10,12,13,41,14.90
2016,10,12,13,42,14.90
2016,10,12,13,43,14.90
2016,10,12,13,44,14.90
2016,10,12,13,45,14.90
2016,10,12,13,46,14.90
2016,10,12,13,47,14.90
2016,10,12,13,48,14.90
2016,10,12,13,49,15.00
2016,10,12,13,50,15.00
2016,10,12,13,51,14.90
2016,10,12,13,52,14.90
2016,10,12,13,53,14.80
2016,10,12,13,54,14.80
2016,10,12,13,55,14.80
2016,10,12,13,56,14.80
2016,10,12,13,57,14.80
2016,10,12,13,58,14.80
2016,10,12,13,59,14.80
2016,10,12,14,00,14.80
2016,10,12,14,01,14.80
2016,10,12,14,02,14.70
2016,10,12,14,03,14.70
2016,10,12,14,04,14.70
2016,10,12,14,05,14.70
2016,10,12,14,06,14.70
2016,10,12,14,07,14.60
2016,10,12,14,08,14.60
2016,10,12,14,09,14.50
2016,10,12,14,10,14.40
2016,10,12,14,11,14.30
2016,10,12,14,12,14.20
2016,10,12,14,13,14.10
2016,10,12,14,14,14.00
2016,10,12,14,15,14.00
2016,10,12,14,16,13.90
2016,10,12,14,17,13.80
2016,10,12,14,18,13.80
2016,10,12,14,19,13.80
2016,10,12,14,20,13.90
2016,10,12,14,21,13.90
2016,10,12,14,22,13.90
2016,10,12,14,23,13.90
2016,10,12,14,24,13.90
2016,10,12,14,25,13.90
2016,10,12,14,26,13.90
2016,10,12,14,27,13.90
2016,10,12,14,28,13.80
2016,10,12,14,29,13.80
2016,10,12,14,30,13.80
2016,10,12,14,31,13.70
2016,10,12,14,32,13.70
2016,10,12,14,33,13.70
2016,10,12,14,34,13.70
2016,10,12,14,35,13.60
2016,10,12,14,36,13.60
2016,10,12,14,37,13.60
2016,10,12,14,38,13.60
2016,10,12,14,39,13.70
2016,10,12,14,40,13.70
2016,10,12,14,41,13.70
2016,10,12,14,42,13.70
2016,10,12,14,43,13.70
2016,10,12,14,44,13.70
2016,10,12,14,45,13.60
2016,10,12,14,46,13.60
2016,10,12,14,47,13.50
2016,10,12,14,48,13.50
2016,10,12,14,49,13.50
2016,10,12,14,50,13.40
2016,10,12,14,51,13.40
2016,10,12,14,52,13.40
2016,10,12,14,53,13.40
2016,10,12,14,54,13.30
2016,10,12,14,55,13.30
2016,10,12,14,56,13.30
2016,10,12,14,57,13.30
2016,10,12,14,58,13.20
2016,10,12,14,59,13.20
2016,10,12,15,00,13.20
2016,10,12,15,01,13.20
2016,10,12,15,02,13.20
2016,10,12,15,03,13.20
2016,10,12,15,04,13.20
2016,10,12,15,05,13.20
2016,10,12,15,06,13.20
2016,10,12,15,07,13.20
2016,10,12,15,08,13.20
2016,10,12,15,09,13.20
2016,10,12,15,10,13.20
2016,10,12,15,11,13.20
2016,10,12,15,12,13.10
2016,10,12,15,13,13.10
2016,10,12,15,14,13.10
2016,10,12,15,15,13.10
2016,10,12,15,16,13.10
2016,10,12,15,17,13.10
2016,10,12,15,18,13.10
2016,10,12,15,19,13.10
2016,10,12,15,20,13.10
2016,10,12,15,21,13.10
2016,10,12,15,22,13.10
2016,10,12,15,23,13.10
2016,10,12,15,24,13.10
2016,10,12,15,25,13.10
2016,10,12,15,26,13.10
2016,10,12,15,27,13.10
2016,10,12,15,28,13.10
2016,10,12,15,29,13.00
2016,10,12,15,30,13.00
2016,10,12,15,31,13.00
2016,10,12,15,32,13.00
2016,10,12,15,33,13.00
2016,10,12,15,34,13.00
2016,10,12,15,35,12.90
2016,10,12,15,36,12.90
2016,10,12,15,37,12.90
2016,10,12,15,38,12.90
2016,10,12,15,39,12.90
2016,10,12,15,40,12.90
2016,10,12,15,41,12.90
2016,10,12,15,42,12.90
2016,10,12,15,43,12.90
2016,10,12,15,44,12.90
2016,10,12,15,45,12.90
2016,10,12,15,46,12.90
2016,10,12,15,47,12.90
2016,10,12,15,48,12.90
2016,10,12,15,49,12.90
2016,10,12,15,50,12.90
2016,10,12,15,51,12.90
2016,10,12,15,52,12.90
2016,10,12,15,53,12.90
2016,10,12,15,54,12.80
2016,10,12,15,55,12.80
2016,10,12,15,56,12.80
2016,10,12,15,57,12.80
2016,10,12,15,58,12.80
2016,10,12,15,59,12.80
2016,10,12,16,00,12.80
2016,10,12,16,01,12.80
2016,10,12,16,02,12.80
2016,10,12,16,03,12.80
2016,10,12,16,04,12.80
2016,10,12,16,05,12.80
2016,10,12,16,06,12.80
2016,10,12,16,07,12.80
2016,10,12,16,08,12.80
2016,10,12,16,09,12.80
2016,10,12,16,10,12.80
2016,10,12,16,11,12.80
2016,10,12,16,12,12.80
2016,10,12,16,13,12.80
2016,10,12,16,14,12.80
2016,10,12,16,15,12.80
2016,10,12,16,16,12.80
2016,10,12,16,17,12.80
2016,10,12,16,18,12.80
2016,10,12,16,19,12.80
2016,10,12,16,20,12.80
2016,10,12,16,21,12.80
2016,10,12,16,22,12.80
2016,10,12,16,23,12.80
2016,10,12,16,24,12.70
2016,10,12,16,25,12.70
2016,10,12,16,26,12.70
2016,10,12,16,27,12.70
2016,10,12,16,28,12.70
2016,10,12,16,29,12.70
2016,10,12,16,30,12.70
2016,10,12,16,31,12.70
2016,10,12,16,32,12.80
2016,10,12,16,33,12.80
2016,10,12,16,34,12.80
2016,10,12,16,35,12.80
2016,10,12,16,36,12.80
2016,10,12,16,37,12.80
2016,10,12,16,38,12.80
2016,10,12,16,39,12.80
2016,10,12,16,40,12.80
2016,10,12,16,41,12.80
2016,10,12,16,42,12.80
2016,10,12,16,43,12.80
2016,10,12,16,44,12.80
2016,10,12,16,45,12.80
2016,10,12,16,46,12.80
2016,10,12,16,47,12.80
2016,10,12,16,48,12.80
2016,10,12,16,49,12.90
2016,10,12,16,50,12.80
2016,10,12,16,51,12.80
2016,10,12,16,52,12.80
2016,10,12,16,53,12.80
2016,10,12,16,54,12.80
2016,10,12,16,55,12.80
2016,10,12,16,56,12.70
2016,10,12,16,57,12.70
2016,10,12,16,58,12.70
2016,10,12,16,59,12.70
2016,10,12,17,00,12.70
2016,10,12,17,01,12.70
2016,10,12,17,02,12.70
2016,10,12,17,03,12.70
2016,10,12,17,04,12.60
2016,10,12,17,05,12.60
2016,10,12,17,06,12.60
2016,10,12,17,07,12.60
2016,10,12,17,08,12.60
2016,10,12,17,09,12.50
2016,10,12,17,10,12.50
2016,10,12,17,11,12.50
2016,10,12,17,12,12.50
2016,10,12,17,13,12.40
2016,10,12,17,14,12.40
2016,10,12,17,15,12.40
2016,10,12,17,16,12.40
2016,10,12,17,17,12.40
2016,10,12,17,18,12.40
2016,10,12,17,19,12.40
2016,10,12,17,20,12.30
2016,10,12,17,21,12.30
2016,10,12,17,22,12.30
2016,10,12,17,23,12.30
2016,10,12,17,24,12.30
2016,10,12,17,25,12.30
2016,10,12,17,26,12.30
2016,10,12,17,27,12.30
2016,10,12,17,28,12.30
2016,10,12,17,29,12.20
2016,10,12,17,30,12.20
2016,10,12,17,31,12.20
2016,10,12,17,32,12.20
2016,10,12,17,33,12.20
2016,10,12,17,34,12.20
2016,10,12,17,35,12.10
2016,10,12,17,36,12.10
2016,10,12,17,37,12.10
2016,10,12,17,38,12.10
2016,10,12,17,39,12.10
2016,10,12,17,40,12.10
2016,10,12,17,41,12.10
2016,10,12,17,42,12.10
2016,10,12,17,43,12.00
2016,10,12,17,44,12.00
2016,10,12,17,45,12.00
2016,10,12,17,46,12.00
2016,10,12,17,47,12.00
2016,10,12,17,48,11.90
2016,10,12,17,49,11.90
2016,10,12,17,50,11.90